Weather History for LTAC - October, 2012

Change the Weather History Date:

Friday, October 12, 2012

  Actual Average Record
Temperature  
Mean Temperature 52 °F -  
Max Temperature 65 °F 59 °F 84 °F (1998)
Min Temperature 40 °F 34 °F 32 °F (1999)
Degree Days  
Heating Degree Days 12    
Growing Degree Days 2 (Base 50)    
Moisture  
Dew Point 45 °F    
Average Humidity 76    
Maximum Humidity 100    
Minimum Humidity 33    
Precipitation  
Precipitation 0.00 in - - ()
Sea Level Pressure  
Sea Level Pressure 30.13 in    
Wind  
Wind Speed 3 mph ()    
Max Wind Speed 9 mph    
Max Gust Speed -    
Visibility 5.7 miles    
Events Fog    
Averages and records for this station are not official NWS values.
T = Trace of Precipitation, MM = Missing Value Source: Averaged Metar Reports

Daily Weather History Graph

Daily Weather History Graph

Search for Another Location

Airport or City:

Trip Planner

Search our weather history database for the weather conditions in past years. The results will help you decide how hot, cold, wet, or windy it might be!

Date:

Astronomy

Oct. 12, 2012 Rise Set
Actual Time 6:55 AM EEST 6:12 PM EEST
Civil Twilight 6:28 AM EEST 6:39 PM EEST
Nautical Twilight 5:56 AM EEST 7:11 PM EEST
Astronomical Twilight 5:25 AM EEST 7:42 PM EEST
Moon 3:16 AM EEST (10/12) 4:11 PM EEST (10/12)
Length of Visible Light 12h 11m
Length of Day
11h 16m
Waning Crescent, 13% of the Moon is Illuminated
Oct 12
Waning Crescent
Oct 15
New
Oct 22
First Quarter
Oct 29
Full
Nov 7
Last Quarter

Hourly Weather History & Observations

Time (EEST) Temp. Windchill Dew Point Humidity Pressure Visibility Wind Dir Wind Speed Gust Speed Precip Events Conditions
12:20 AM 51.8 °F - 50.0 °F 94% 30.01 in 6.2 mi South 3.5 mph - N/A   Scattered Clouds
12:50 AM 51.8 °F - 50.0 °F 94% 30.01 in 6.2 mi SSW 4.6 mph - N/A   Scattered Clouds
1:20 AM 51.8 °F - 50.0 °F 94% 30.04 in 6.2 mi SW 3.5 mph - N/A   Scattered Clouds
1:50 AM 50.0 °F - 50.0 °F 100% 30.04 in 6.2 mi Variable 2.3 mph - N/A   Scattered Clouds
2:20 AM 51.8 °F - 48.2 °F 88% 30.04 in 6.2 mi SSE 4.6 mph - N/A   Scattered Clouds
2:50 AM 50.0 °F - 48.2 °F 94% 30.04 in 6.2 mi South 4.6 mph - N/A   Scattered Clouds
3:00 AM 50 °F - 49 °F 93% 30.01 in 12 mi South 4.6 mph - -   Partly Cloudy
3:50 AM 48.2 °F - 46.4 °F 93% 30.06 in 6.2 mi SW 4.6 mph - N/A   Scattered Clouds
4:20 AM 48.2 °F - 46.4 °F 93% 30.06 in 6.2 mi Variable 1.2 mph - N/A   Scattered Clouds
4:50 AM 48.2 °F - 48.2 °F 100% 30.06 in 6.2 mi Variable 2.3 mph - N/A   Scattered Clouds
5:20 AM 46.4 °F - 46.4 °F 100% 30.09 in 6.2 mi Variable 2.3 mph - N/A   Scattered Clouds
5:50 AM 44.6 °F 42.2 °F 44.6 °F 100% 30.09 in - SW 4.6 mph - N/A   Partly Cloudy
6:20 AM 44.6 °F 42.2 °F 44.6 °F 100% 30.09 in 2.5 mi WSW 4.6 mph - N/A   Partly Cloudy
6:50 AM 44.6 °F - 42.8 °F 93% 30.09 in 0.7 mi Variable 1.2 mph - N/A Fog Patches of Fog
7:20 AM 41.0 °F - 41.0 °F 100% 30.12 in 0.6 mi Variable 2.3 mph - N/A Fog Patches of Fog
7:50 AM 41.0 °F - 41.0 °F 100% 30.12 in 0.4 mi Variable 2.3 mph - N/A Fog Fog
8:20 AM 41.0 °F 39.0 °F 41.0 °F 100% 30.12 in 0.4 mi NNW 3.5 mph - N/A Fog Fog
8:50 AM 44.6 °F 43.1 °F 44.6 °F 100% 30.15 in 1.9 mi WNW 3.5 mph - N/A   Partly Cloudy
9:00 AM 44 °F - 44 °F 100% 30.15 in 2 mi WNW 3.5 mph - - Fog Light Fog
9:20 AM 48.2 °F - 48.2 °F 100% 30.15 in 3.7 mi Variable 2.3 mph - N/A   Partly Cloudy
9:50 AM 51.8 °F - 48.2 °F 88% 30.15 in 6.2 mi East 3.5 mph - N/A   Partly Cloudy
10:20 AM 55.4 °F - 48.2 °F 77% 30.15 in 6.2 mi Variable 2.3 mph - N/A   Partly Cloudy
10:50 AM 57.2 °F - 46.4 °F 67% 30.15 in 6.2 mi Variable 1.2 mph - N/A   Partly Cloudy
11:20 AM 57.2 °F - 44.6 °F 63% 30.15 in 6.2 mi Variable 3.5 mph - N/A   Partly Cloudy
11:50 AM 59.0 °F - 46.4 °F 63% 30.15 in 6.2 mi Variable 3.5 mph - N/A   Partly Cloudy
12:20 PM 60.8 °F - 46.4 °F 59% 30.15 in 6.2 mi West 4.6 mph - N/A   Partly Cloudy
12:50 PM 60.8 °F - 42.8 °F 52% 30.15 in 6.2 mi SW 8.1 mph - N/A   Partly Cloudy
1:20 PM 62.6 °F - 44.6 °F 52% 30.15 in 6.2 mi WSW 6.9 mph - N/A   Scattered Clouds
1:50 PM 62.6 °F - 42.8 °F 48% 30.15 in 6.2 mi SW 9.2 mph - N/A   Scattered Clouds
2:20 PM 64.4 °F - 42.8 °F 45% 30.15 in 6.2 mi SW 6.9 mph - N/A   Scattered Clouds
2:50 PM 64.4 °F - 42.8 °F 45% 30.15 in 6.2 mi SSW 8.1 mph - N/A   Scattered Clouds
3:00 PM 65 °F - 43 °F 33% 30.09 in 12 mi SSW 8.1 mph - -   Partly Cloudy
3:20 PM 64.4 °F - 42.8 °F 45% 30.15 in 6.2 mi SSW 6.9 mph - N/A   Scattered Clouds
3:50 PM 66.2 °F - 39.2 °F 37% 30.15 in 6.2 mi WSW 4.6 mph - N/A   Scattered Clouds
4:20 PM 64.4 °F - 41.0 °F 42% 30.15 in 6.2 mi SW 5.8 mph - N/A   Scattered Clouds
4:50 PM 64.4 °F - 41.0 °F 42% 30.15 in 6.2 mi SW 6.9 mph - N/A   Scattered Clouds
5:20 PM 62.6 °F - 42.8 °F 48% 30.15 in 6.2 mi WSW 4.6 mph - N/A   Scattered Clouds
5:50 PM 62.6 °F - 46.4 °F 55% 30.15 in 6.2 mi WSW 4.6 mph - N/A   Scattered Clouds
6:20 PM 60.8 °F - 46.4 °F 59% 30.15 in 6.2 mi WSW 3.5 mph - N/A   Scattered Clouds
6:50 PM 59.0 °F - 46.4 °F 63% 30.15 in 6.2 mi WSW 2.3 mph - N/A   Scattered Clouds
7:20 PM 59.0 °F - 46.4 °F 63% 30.15 in 6.2 mi Variable 3.5 mph - N/A   Mostly Cloudy
7:50 PM 55.4 °F - 44.6 °F 67% 30.18 in 6.2 mi Variable 1.2 mph - N/A   Scattered Clouds
8:20 PM 55.4 °F - 46.4 °F 72% 30.18 in 6.2 mi Variable 1.2 mph - N/A   Scattered Clouds
8:50 PM 51.8 °F - 46.4 °F 82% 30.18 in 6.2 mi Variable 1.2 mph - N/A   Scattered Clouds
9:00 PM 52 °F - 46 °F 75% 30.19 in 6 mi 1.2 mph - -   Scattered Clouds
9:20 PM 51.8 °F - 46.4 °F 82% 30.18 in 6.2 mi Variable 1.2 mph - N/A   Scattered Clouds
9:50 PM 51.8 °F - 46.4 °F 82% 30.18 in 6.2 mi ENE 3.5 mph - N/A   Mostly Cloudy
10:20 PM 50.0 °F - 44.6 °F 82% 30.18 in 6.2 mi Variable 1.2 mph - N/A   Scattered Clouds
10:50 PM 48.2 °F - 42.8 °F 82% 30.18 in 6.2 mi North 3.5 mph - N/A   Scattered Clouds
11:20 PM 48.2 °F - 42.8 °F 82% 30.18 in 6.2 mi North 4.6 mph - N/A   Scattered Clouds
11:50 PM 46.4 °F - 42.8 °F 87% 30.18 in 6.2 mi Variable 1.2 mph - N/A   Scattered Clouds